COSMOS 2251 DEB, 34035

Orbit data source: Space-Track

COSMOS 2251 DEB, 34035 is space debris in LEO originally from a launch on Wed, 16 Jun 1993 UTC launched from the Plesetsk Missile And Space Complex (PKMTR). The debris from Iridium 33, an American commercial communications satellite, has been tracked extensively since its accidental collision with the defunct Russian satellite Cosmos 2251 in 2009. This event, occurring at high speed in low Earth orbit (LEO), generated thousands of pieces of space debris, significantly increasing the risk of further collisions. The Iridium 33 debris cloud has impacted space traffic management and orbital debris mitigation strategies, making it a subject of ongoing study in space situational awareness.

Loading next visibility...
Identifier
34035, 1993-036HW
Orbit
LEO
Country
Flag of CISCIS
Related business
Manufacturer
Unknown
Mission
Spacecraft
Bus & Motor
Unknown
Mass
Unknown
Launch date (UTC)
1993-06-16 (33 years ago)
Launch vehicle
Unknown
Launch site
Plesetsk Missile And Space Complex (PKMTR)
Object type
Payload
Rocket body
Debris
Shape & HBR
Unknown shape, 0.1 m
Radar Cross Section
Small (<0.1 m²)

Expand to show TLE details & history
Last TLE update: 1 day ago

TLE from 1 day ago
0 COSMOS 2251 DEB
1 34035U 93036HW  26207.23525839  .00003982  00000-0  93262-3 0  9997
2 34035  74.0646 284.1143 0040915 235.7592 154.7256 14.54390042912429
Epoch: 2026-07-26T05:38Z
TLE epoch observation values (Epoch: 2026-07-26T05:38:46.324Z)
Latitude
29.44186°
Longitude
-95.29056°
Altitude
740.971 km
Speed
7.473 km/s
True Right ascension
19h 33m 21s
True Declination
29° 17' 40"
Sunlit
Object was in full shadow at epoch
Visualization orbit readout
Latitude
Unknown
Longitude
Unknown
Altitude
Unknown
Speed
Unknown
Apparent Right ascension
Unknown
Apparent Declination
Unknown
Sunlit
N/A
Visualization observer readout
Local Sidereal Time
00:02:07
Azimuth
Unknown
Elevation
Unknown
Doppler factor
Unknown
Orbital elements
Apogee altitude
737.944 km
Perigee altitude
679.951 km
Semi-major axis
7,087.084 km
Eccentricity
0.00409
Inclination
74.0646°
RAAN
284.1143°
Arg. of periapsis
235.7592°
True anomaly
154.92486°
Mean anomaly
154.7256°
Eccentric anomaly
154.82532°
Mean motion
3.63782 °/min
Orbital period
98.96 mins
BSTAR
0.00093262
Loading maneuver chart data...
Computing Atmospheric mass density...

Documentation

Showing up to 5 results
|